Sheboygan, WI

12:23 AM CDT on April 22, 2018 (GMT -0500)
Sheboygan County Memorial

Weather History for KSBM - February, 2013

Change the Weather History Date:

Thursday, February 28, 2013

  Actual Average Record
Temperature  
Mean Temperature 28 °F -  
Max Temperature 32 °F 37 °F 57 °F (2016)
Min Temperature 24 °F 23 °F -16 °F (2014)
Degree Days  
Heating Degree Days 36    
Moisture  
Dew Point 25 °F    
Average Humidity 83    
Maximum Humidity 93    
Minimum Humidity 72    
Precipitation  
Precipitation 0.00 in - - ()
Sea Level Pressure  
Sea Level Pressure 29.94 in    
Wind  
Wind Speed 13 mph (North)    
Max Wind Speed 18 mph    
Max Gust Speed 28 mph    
Visibility 8 miles    
Events Rain , Snow    
Averages and records for this station are not official NWS values.
T = Trace of Precipitation, MM = Missing Value Source: NWS Daily Summary

Daily Weather History Graph

Daily Weather History Graph

Search for Another Location

Airport or City:

Astronomy

Feb. 28, 2013 Rise Set
Actual Time 6:29 AM CST 5:39 PM CST
Civil Twilight 6:00 AM CST 6:07 PM CST
Nautical Twilight 5:27 AM CST 6:41 PM CST
Astronomical Twilight 4:53 AM CST 7:14 PM CST
Moon 9:14 PM CST (2/28) 7:31 AM CST (2/28)
Length of Visible Light 12h 07m
Length of Day
11h 09m
Waning Gibbous, 90% of the Moon is Illuminated
Feb 28
Waning Gibbous
Mar 4
Last Quarter
Mar 11
New
Mar 19
First Quarter
Mar 27
Full

Hourly Weather History & Observations

Time (CST) Temp. Windchill Dew Point Humidity Pressure Visibility Wind Dir Wind Speed Gust Speed Precip Events Conditions
1:53 AM 32.0 °F 21.6 °F 28.9 °F 88% 29.78 in 10.0 mi North 15.0 mph 23.0 mph 0.00 in   Overcast
2:53 AM 32.0 °F 22.1 °F 30.0 °F 92% 29.79 in 6.0 mi North 13.8 mph 21.9 mph 0.00 in   Overcast
3:22 AM 32.0 °F 22.1 °F 30.2 °F 93% 29.78 in 3.0 mi North 13.8 mph - 0.00 in Rain Light Freezing Rain
3:53 AM 32.0 °F 23.0 °F 30.0 °F 92% 29.82 in 7.0 mi North 11.5 mph - 0.00 in   Overcast
4:01 AM 32.0 °F 22.1 °F 30.2 °F 93% 29.79 in 6.0 mi North 13.8 mph - N/A   Overcast
4:44 AM 30.2 °F 21.3 °F 28.4 °F 93% 29.81 in 8.0 mi North 10.4 mph - N/A   Overcast
4:53 AM 30.9 °F 21.2 °F 28.9 °F 92% 29.84 in 7.0 mi North 12.7 mph 19.6 mph N/A   Overcast
5:00 AM 30.2 °F 21.3 °F 28.4 °F 93% 29.81 in 6.0 mi North 10.4 mph 18.4 mph N/A   Overcast
5:45 AM 30.2 °F 20.2 °F 28.4 °F 93% 29.83 in 10.0 mi North 12.7 mph 21.9 mph N/A   Overcast
5:53 AM 30.9 °F 20.2 °F 28.9 °F 92% 29.86 in 10.0 mi North 15.0 mph - N/A   Overcast
6:24 AM 32.0 °F 22.5 °F 28.4 °F 87% 29.84 in 10.0 mi North 12.7 mph 25.3 mph N/A   Overcast
6:53 AM 32.0 °F 22.1 °F 28.0 °F 85% 29.88 in 10.0 mi North 13.8 mph 27.6 mph N/A   Overcast
7:48 AM 30.2 °F 20.8 °F 28.4 °F 93% 29.89 in 2.0 mi North 11.5 mph 20.7 mph 0.00 in Snow Light Snow
7:49 AM 30.9 °F 22.8 °F 28.9 °F 92% 29.92 in 2.5 mi North 9.2 mph 20.7 mph 0.00 in Snow Light Snow
7:57 AM 30.2 °F 20.2 °F 28.4 °F 93% 29.89 in 9.0 mi North 12.7 mph - 0.00 in   Overcast
8:20 AM 32.0 °F 22.1 °F 28.4 °F 87% 29.89 in 10.0 mi North 13.8 mph 20.7 mph 0.00 in   Overcast
8:53 AM 30.9 °F 20.7 °F 26.1 °F 82% 29.93 in 10.0 mi North 13.8 mph 26.5 mph 0.00 in   Overcast
9:25 AM 32.0 °F 21.6 °F 26.6 °F 80% 29.91 in 10.0 mi North 15.0 mph 25.3 mph N/A   Overcast
9:45 AM 32.0 °F 22.1 °F 24.8 °F 75% 29.91 in 10.0 mi North 13.8 mph 25.3 mph N/A   Overcast
9:53 AM 32.0 °F 23.0 °F 25.0 °F 75% 29.95 in 10.0 mi North 11.5 mph 21.9 mph N/A   Overcast
10:53 AM 32.0 °F 20.5 °F 25.0 °F 75% 29.96 in 10.0 mi North 18.4 mph 24.2 mph N/A   Overcast
11:53 AM 30.9 °F 21.2 °F 24.1 °F 76% 29.98 in 10.0 mi North 12.7 mph 27.6 mph N/A   Overcast
12:53 PM 30.9 °F 20.2 °F 23.0 °F 72% 29.99 in 10.0 mi North 15.0 mph 21.9 mph N/A   Overcast
1:53 PM 28.9 °F 17.3 °F 21.9 °F 75% 30.00 in 10.0 mi North 16.1 mph 23.0 mph N/A   Overcast
2:53 PM 30.0 °F 20.0 °F 21.9 °F 72% 30.02 in 10.0 mi North 12.7 mph 24.2 mph N/A   Overcast
3:05 PM 28.4 °F 18.5 °F 21.2 °F 74% 30.00 in 10.0 mi North 11.5 mph 19.6 mph N/A   Overcast
3:53 PM 28.9 °F 18.2 °F 21.0 °F 72% 30.04 in 10.0 mi North 13.8 mph 20.7 mph N/A   Overcast
4:53 PM 27.0 °F 15.6 °F 21.0 °F 78% 30.06 in 10.0 mi North 13.8 mph 19.6 mph N/A   Overcast
5:21 PM 26.6 °F 15.7 °F 19.4 °F 74% 30.04 in 10.0 mi North 12.7 mph - N/A   Overcast
5:53 PM 26.1 °F 16.2 °F 19.9 °F 78% 30.09 in 8.0 mi North 10.4 mph - 0.00 in Snow Light Snow
6:53 PM 26.1 °F 17.6 °F 21.0 °F 81% 30.11 in 4.0 mi North 8.1 mph - 0.00 in Snow Light Snow
7:53 PM 25.0 °F 13.6 °F 19.9 °F 81% 30.12 in 5.0 mi North 12.7 mph 20.7 mph 0.00 in Snow Light Snow
9:53 PM 25.0 °F 13.6 °F 19.0 °F 78% 30.13 in 10.0 mi North 12.7 mph - 0.00 in   Overcast
10:53 PM 25.0 °F 14.2 °F 19.0 °F 78% 30.13 in 10.0 mi North 11.5 mph - N/A   Overcast
11:53 PM 24.1 °F 13.1 °F 18.0 °F 77% 30.12 in 10.0 mi North 11.5 mph - N/A   Overcast